Location: Chimay
(50.0486°N, 4.3171°E)
Time: 17:47:09
(UTC+00:00)

Cosmos 468 Rocket - Pass Details

Date: 08 August 2020
Orbit: 744 x 779 km, 74.0° (Epoch: 25 September)

Event Time Altitude Azimuth Distance (km) Brightness Sun altitude
Rises 21:35:49 0° 335° (NNW) 3,276 8.9 -18.0°
Reaches altitude 10° 21:38:13 10° 335° (NNW) 2,343 7.8 -18.2°
Maximum altitude 21:43:33 84° 249° (WSW) 789 4.0 -18.7°
Enters shadow 21:45:51 35° 163° (SSE) 1,237 4.5 -18.8°
